Zurück zum Katalog

CZ-6A DEB

AktivPO
NORAD 61483·DEBRIS·🇨🇳 China

Gestartet Aug 6, 2024 von Taiyuan Satellite Launch Center

Loading…

Nächste Überflüge (nächste 24 Stunden)

TLE

AktuellSource: Space-Track

Epoche: Sep 13, 2026, 08:17 UTC

1 61483U 24140AAR 26256.34550517  .00001524  00000-0  58167-3 0  9996
2 61483  88.6512 231.7783 0064870 162.1707 198.1786 14.29139301105182

Verfolge CZ-6A DEB in Echtzeit mit AllMySat

Download on the App Store